Hourly Data Report for December 06, 2019

EUREKA CLIMATE
NUNAVUT
Current Station Operator: ECCC - MSC

79°59'21.000" N
85°56'02.000" W
10.00 m
2401199
71613
NEK

Download Data

Hourly Data (December 2019)
Hourly Data Report for December 6, 2019
TIME
LST
Temp Definition
°C
Dew Point Definition
°C
Rel Hum Definition
%
Precip. Amount Definition
mm

Wind Dir Definition
10's deg

Wind Spd Definition
km/h
Visibility Definition
km
Stn Press Definition
kPa
Hmdx Definition


Wind Chill Definition


Weather Definition


00:00 -27.1 -29.6 79 0.2 10 17   100.79   -39 LegendNANA
01:00 -26.9 -29.5 79 0.0 10 9   100.83   -35 LegendNANA
02:00 -26.7 -29.2 80 0.0 11 3   100.83   -30 LegendNANA
03:00 -26.4 -28.9 79 0.0 8 9   100.86   -34 LegendNANA
04:00 -26.6 -29.1 79 0.0 7 7   100.87   -33 LegendNANA
05:00 -26.2 -28.7 79 0.2 5 9   100.87   -34 LegendNANA
06:00 -25.3 -27.7 80 0.0 13 5   100.86   -30 LegendNANA
07:00 -25.5 -27.9 80 0.2 11 7   100.85   -32 LegendNANA
08:00 -25.8 -28.1 81 0.0 11 8   100.87   -33 LegendNANA
09:00 -26.0 -28.4 80 0.0 11 6   100.87   -32 LegendNANA
10:00 -25.8 -28.2 80 0.0 12 6   100.86   -32 LegendNANA
11:00 -27.3 -29.8 79 0.0 10 6   100.88   -33 LegendNANA
12:00 -29.3 -32.0 77 0.0 5 6   100.88   -36 LegendNANA
13:00 -29.5 -32.1 78 0.0 3 7   100.87   -37 LegendNANA
14:00 -29.2 -31.7 79 0.0 3 8   100.88   -37 LegendNANA
15:00 -29.1 -31.8 78 0.0 5 3   100.88   -32 LegendNANA
16:00 -29.3 -31.9 78 0.0 3 8   100.84   -37 LegendNANA
17:00 -29.0 -31.7 78 0.0 9 9   100.81   -37 LegendNANA
18:00 -30.2 -33.0 76 0.0 9 5   100.81   -36 LegendNANA
19:00 -29.0 -31.6 79 0.0 7 4   100.80   -33 LegendNANA
20:00 -30.0 -32.8 77 0.0 0 1   100.78   -31 LegendNANA
21:00 -31.9 -34.9 75 0.0 0 1   100.77   -33 LegendNANA
22:00 -31.8 -34.8 75 0.0 10 3   100.73   -35 LegendNANA
23:00 -32.1 -35.1 75 0.0 10 4   100.71   -37 LegendNANA

Notes on Data Quality.

Legend

  • E = Estimated
  • M = Missing
  • NA = Not Available*
  • [empty] = Indicates an unobserved value
Date modified: